Time,TemperatureF,DewpointF,PressureIn,WindDirection,WindDirectionDegrees,WindSpeedMPH,WindSpeedGustMPH,Humidity,HourlyPrecipIn,Conditions,Clouds,dailyrainin,SoftwareType,DateUTC
2013-09-21 00:00:00,74.6,69.1,29.89,NE,55,0.0,0.0,83,0.00,,,0.00,Wunderground v.1.15,2013-09-21 04:00:00,
2013-09-21 00:05:00,74.4,68.9,29.89,NE,55,0.0,0.0,83,0.00,,,0.00,Wunderground v.1.15,2013-09-21 04:05:00,
2013-09-21 00:10:00,74.4,68.9,29.89,NE,55,0.0,0.0,83,0.00,,,0.00,Wunderground v.1.15,2013-09-21 04:10:00,
2013-09-21 00:15:00,74.2,68.7,29.89,NE,55,0.0,0.0,83,0.00,,,0.00,Wunderground v.1.15,2013-09-21 04:15:00,
2013-09-21 00:20:00,74.0,68.9,29.89,NE,55,0.0,0.0,84,0.00,,,0.00,Wunderground v.1.15,2013-09-21 04:20:00,
2013-09-21 00:25:00,73.9,68.8,29.89,NE,55,0.0,0.0,84,0.00,,,0.00,Wunderground v.1.15,2013-09-21 04:25:00,
2013-09-21 00:30:00,73.7,68.9,29.89,NE,55,0.0,0.0,85,0.00,,,0.00,Wunderground v.1.15,2013-09-21 04:30:00,
2013-09-21 00:35:00,73.5,68.7,29.89,NE,55,0.0,0.0,85,0.00,,,0.00,Wunderground v.1.15,2013-09-21 04:35:00,
2013-09-21 00:40:00,73.5,69.1,29.89,NE,55,0.0,0.0,86,0.00,,,0.00,Wunderground v.1.15,2013-09-21 04:40:00,
2013-09-21 00:45:00,73.3,68.9,29.89,NE,55,0.0,0.0,86,0.00,,,0.00,Wunderground v.1.15,2013-09-21 04:45:00,
2013-09-21 00:50:00,73.2,68.8,29.88,NE,55,0.0,0.0,86,0.00,,,0.00,Wunderground v.1.15,2013-09-21 04:50:00,
2013-09-21 00:55:00,73.0,68.6,29.88,NE,55,0.0,0.0,86,0.00,,,0.00,Wunderground v.1.15,2013-09-21 04:55:00,
2013-09-21 01:05:00,72.8,68.7,29.88,NE,55,0.0,0.0,87,0.00,,,0.00,Wunderground v.1.15,2013-09-21 05:05:00,
2013-09-21 01:15:00,72.5,68.7,29.88,NE,55,0.0,0.0,88,0.00,,,0.00,Wunderground v.1.15,2013-09-21 05:15:00,
2013-09-21 01:20:00,72.3,68.9,29.88,NE,55,0.0,0.0,89,0.00,,,0.00,Wunderground v.1.15,2013-09-21 05:20:00,
2013-09-21 01:30:00,72.1,68.7,29.88,NE,55,0.0,0.0,89,0.00,,,0.00,Wunderground v.1.15,2013-09-21 05:30:00,
2013-09-21 01:40:00,71.8,68.7,29.87,NE,55,0.0,0.0,90,0.00,,,0.00,Wunderground v.1.15,2013-09-21 05:40:00,
2013-09-21 01:45:00,71.6,68.5,29.87,NE,55,0.0,0.0,90,0.00,,,0.00,Wunderground v.1.15,2013-09-21 05:45:00,
2013-09-21 01:50:00,71.6,68.8,29.87,NE,55,0.0,0.0,91,0.00,,,0.00,Wunderground v.1.15,2013-09-21 05:50:00,
2013-09-21 02:00:00,71.5,68.7,29.87,NE,55,0.0,0.0,91,0.00,,,0.00,Wunderground v.1.15,2013-09-21 06:00:00,
2013-09-21 02:05:00,71.3,68.5,29.87,NE,55,0.0,0.0,91,0.00,,,0.00,Wunderground v.1.15,2013-09-21 06:05:00,
2013-09-21 02:15:00,71.1,68.7,29.87,NE,55,0.0,0.0,92,0.00,,,0.00,Wunderground v.1.15,2013-09-21 06:15:00,
2013-09-21 02:25:00,70.9,68.5,29.87,NE,55,0.0,0.0,92,0.00,,,0.00,Wunderground v.1.15,2013-09-21 06:25:00,
2013-09-21 02:30:00,70.9,68.5,29.87,NE,55,0.0,0.0,92,0.00,,,0.00,Wunderground v.1.15,2013-09-21 06:30:00,
2013-09-21 02:40:00,70.6,68.5,29.86,NE,55,0.0,0.0,93,0.00,,,0.00,Wunderground v.1.15,2013-09-21 06:40:00,
2013-09-21 02:45:00,70.6,68.5,29.86,NE,55,0.0,0.0,93,0.00,,,0.00,Wunderground v.1.15,2013-09-21 06:45:00,
2013-09-21 02:55:00,70.4,68.3,29.85,NE,55,0.0,0.0,93,0.00,,,0.00,Wunderground v.1.15,2013-09-21 06:55:00,
2013-09-21 03:05:00,70.3,68.2,29.84,NE,55,0.0,0.0,93,0.00,,,0.00,Wunderground v.1.15,2013-09-21 07:05:00,
2013-09-21 03:15:00,70.1,68.3,29.84,NE,55,0.0,0.0,94,0.00,,,0.00,Wunderground v.1.15,2013-09-21 07:15:00,
2013-09-21 03:25:00,69.9,68.1,29.83,NE,55,0.0,0.0,94,0.00,,,0.00,Wunderground v.1.15,2013-09-21 07:25:00,
2013-09-21 03:35:00,69.8,68.0,29.83,NE,55,0.0,0.0,94,0.00,,,0.00,Wunderground v.1.15,2013-09-21 07:35:00,
2013-09-21 03:40:00,69.8,68.0,29.83,NE,55,0.0,0.0,94,0.00,,,0.00,Wunderground v.1.15,2013-09-21 07:40:00,
2013-09-21 03:50:00,69.6,67.8,29.82,NE,55,0.0,0.0,94,0.00,,,0.00,Wunderground v.1.15,2013-09-21 07:50:00,
2013-09-21 04:00:00,69.8,68.3,29.82,NE,55,0.0,0.0,95,0.00,,,0.00,Wunderground v.1.15,2013-09-21 08:00:00,
2013-09-21 04:05:00,69.8,68.3,29.82,NE,55,0.0,0.0,95,0.00,,,0.00,Wunderground v.1.15,2013-09-21 08:05:00,
2013-09-21 04:15:00,69.8,68.3,29.82,NE,55,0.0,0.0,95,0.00,,,0.00,Wunderground v.1.15,2013-09-21 08:15:00,
2013-09-21 04:20:00,69.8,68.3,29.81,NE,55,0.0,0.0,95,0.00,,,0.00,Wunderground v.1.15,2013-09-21 08:20:00,
2013-09-21 04:30:00,69.6,68.1,29.81,NE,55,0.0,0.0,95,0.00,,,0.00,Wunderground v.1.15,2013-09-21 08:30:00,
2013-09-21 04:40:00,69.6,68.4,29.81,NE,55,0.0,0.0,96,0.00,,,0.00,Wunderground v.1.15,2013-09-21 08:40:00,
2013-09-21 04:50:00,69.4,68.2,29.81,NE,55,0.0,0.0,96,0.00,,,0.00,Wunderground v.1.15,2013-09-21 08:50:00,
2013-09-21 04:55:00,69.4,68.2,29.81,NE,55,0.0,0.0,96,0.00,,,0.00,Wunderground v.1.15,2013-09-21 08:55:00,
2013-09-21 05:05:00,69.4,68.2,29.81,NE,55,0.0,0.0,96,0.00,,,0.00,Wunderground v.1.15,2013-09-21 09:05:00,
2013-09-21 05:15:00,69.4,68.2,29.81,NE,55,0.0,0.0,96,0.00,,,0.00,Wunderground v.1.15,2013-09-21 09:15:00,
2013-09-21 05:20:00,69.3,68.1,29.81,NE,55,0.0,0.0,96,0.00,,,0.00,Wunderground v.1.15,2013-09-21 09:20:00,
2013-09-21 05:25:00,69.3,68.1,29.81,NE,55,0.0,0.0,96,0.00,,,0.00,Wunderground v.1.15,2013-09-21 09:25:00,
2013-09-21 05:35:00,69.1,67.9,29.81,NE,55,0.0,0.0,96,0.00,,,0.00,Wunderground v.1.15,2013-09-21 09:35:00,
2013-09-21 05:45:00,69.1,68.2,29.81,NE,55,0.0,0.0,97,0.00,,,0.00,Wunderground v.1.15,2013-09-21 09:45:00,
2013-09-21 05:55:00,69.1,68.2,29.81,NE,55,0.0,0.0,97,0.00,,,0.00,Wunderground v.1.15,2013-09-21 09:55:00,
2013-09-21 06:05:00,68.9,68.0,29.81,NE,55,0.0,0.0,97,0.00,,,0.00,Wunderground v.1.15,2013-09-21 10:05:00,
2013-09-21 06:15:00,68.8,67.9,29.81,NE,55,0.0,0.0,97,0.00,,,0.00,Wunderground v.1.15,2013-09-21 10:15:00,
2013-09-21 06:25:00,68.6,67.7,29.81,NE,55,0.0,0.0,97,0.00,,,0.00,Wunderground v.1.15,2013-09-21 10:25:00,
2013-09-21 06:30:00,68.4,67.5,29.81,NE,55,0.0,0.0,97,0.00,,,0.00,Wunderground v.1.15,2013-09-21 10:30:00,
2013-09-21 06:40:00,68.3,67.4,29.81,NE,55,0.0,0.0,97,0.00,,,0.00,Wunderground v.1.15,2013-09-21 10:40:00,
2013-09-21 06:50:00,68.3,67.4,29.81,NE,56,0.0,0.0,97,0.00,,,0.00,Wunderground v.1.15,2013-09-21 10:50:00,
2013-09-21 07:00:00,68.1,67.2,29.81,NE,56,0.0,0.0,97,0.00,,,0.00,Wunderground v.1.15,2013-09-21 11:00:00,
2013-09-21 07:05:00,68.1,67.2,29.82,NE,56,0.0,0.0,97,0.00,,,0.00,Wunderground v.1.15,2013-09-21 11:05:00,
2013-09-21 07:15:00,67.9,67.0,29.82,NE,56,0.0,0.0,97,0.00,,,0.00,Wunderground v.1.15,2013-09-21 11:15:00,
2013-09-21 07:20:00,67.9,67.0,29.82,NE,56,0.0,0.0,97,0.00,,,0.00,Wunderground v.1.15,2013-09-21 11:20:00,
2013-09-21 07:25:00,67.8,66.9,29.82,NE,56,0.0,0.0,97,0.00,,,0.00,Wunderground v.1.15,2013-09-21 11:25:00,
2013-09-21 07:35:00,67.8,66.9,29.83,NE,56,0.0,0.0,97,0.00,,,0.00,Wunderground v.1.15,2013-09-21 11:35:00,
2013-09-21 07:40:00,67.9,67.0,29.83,NE,56,0.0,0.0,97,0.00,,,0.00,Wunderground v.1.15,2013-09-21 11:40:00,
2013-09-21 07:50:00,68.1,67.2,29.83,NE,56,0.0,0.0,97,0.00,,,0.00,Wunderground v.1.15,2013-09-21 11:50:00,
2013-09-21 08:00:00,68.3,67.4,29.83,NE,56,0.0,0.0,97,0.00,,,0.00,Wunderground v.1.15,2013-09-21 12:00:00,
2013-09-21 08:05:00,68.4,67.5,29.83,NE,56,0.0,0.0,97,0.00,,,0.00,Wunderground v.1.15,2013-09-21 12:05:00,
2013-09-21 08:15:00,68.9,68.0,29.83,NE,56,0.0,0.0,97,0.00,,,0.00,Wunderground v.1.15,2013-09-21 12:15:00,
2013-09-21 08:25:00,69.8,68.9,29.83,NE,56,0.0,0.0,97,0.00,,,0.00,Wunderground v.1.15,2013-09-21 12:25:00,
2013-09-21 08:30:00,70.3,69.4,29.83,NE,56,0.0,0.0,97,0.00,,,0.00,Wunderground v.1.15,2013-09-21 12:30:00,
2013-09-21 08:40:00,70.9,70.0,29.84,NE,56,0.0,0.0,97,0.00,,,0.00,Wunderground v.1.15,2013-09-21 12:40:00,
2013-09-21 08:50:00,71.6,70.7,29.84,NE,56,0.0,0.0,97,0.00,,,0.00,Wunderground v.1.15,2013-09-21 12:50:00,
2013-09-21 08:55:00,72.0,71.1,29.84,NE,56,0.0,0.0,97,0.00,,,0.00,Wunderground v.1.15,2013-09-21 12:55:00,
2013-09-21 09:05:00,72.8,71.9,29.84,NE,56,0.0,0.0,97,0.00,,,0.00,Wunderground v.1.15,2013-09-21 13:05:00,
2013-09-21 09:15:00,73.5,72.6,29.84,NE,56,0.0,0.0,97,0.00,,,0.00,Wunderground v.1.15,2013-09-21 13:15:00,
2013-09-21 09:20:00,73.7,72.5,29.83,NE,56,0.0,0.0,96,0.00,,,0.00,Wunderground v.1.15,2013-09-21 13:20:00,
2013-09-21 09:30:00,74.6,72.8,29.83,NE,56,0.0,0.0,94,0.00,,,0.00,Wunderground v.1.15,2013-09-21 13:30:00,
2013-09-21 09:40:00,75.8,72.0,29.83,NE,56,0.0,1.0,88,0.00,,,0.00,Wunderground v.1.15,2013-09-21 13:40:00,
2013-09-21 09:45:00,76.5,70.6,29.83,SSE,159,0.0,1.0,82,0.00,,,0.00,Wunderground v.1.15,2013-09-21 13:45:00,
2013-09-21 09:55:00,77.6,70.6,29.83,SSE,159,0.0,0.0,79,0.00,,,0.00,Wunderground v.1.15,2013-09-21 13:55:00,
2013-09-21 10:00:00,78.5,70.7,29.83,West,263,0.0,0.0,77,0.00,,,0.00,Wunderground v.1.15,2013-09-21 14:00:00,
2013-09-21 10:05:00,78.8,70.2,29.83,West,270,0.0,0.0,75,0.00,,,0.00,Wunderground v.1.15,2013-09-21 14:05:00,
2013-09-21 10:20:00,80.5,70.6,29.83,West,270,0.0,0.0,72,0.00,,,0.00,Wunderground v.1.15,2013-09-21 14:20:00,
2013-09-21 10:30:00,81.2,69.6,29.83,West,271,0.0,0.0,68,0.00,,,0.00,Wunderground v.1.15,2013-09-21 14:30:00,
2013-09-21 10:35:00,81.4,69.8,29.82,West,271,0.0,0.0,68,0.00,,,0.00,Wunderground v.1.15,2013-09-21 14:35:00,
2013-09-21 10:45:00,82.6,70.1,29.82,ESE,102,0.0,0.0,66,0.00,,,0.00,Wunderground v.1.15,2013-09-21 14:45:00,
2013-09-21 10:50:00,82.8,69.4,29.82,ESE,102,0.0,0.0,64,0.00,,,0.00,Wunderground v.1.15,2013-09-21 14:50:00,
2013-09-21 11:00:00,82.8,69.4,29.82,SW,219,0.0,1.0,64,0.00,,,0.00,Wunderground v.1.15,2013-09-21 15:00:00,
2013-09-21 11:05:00,82.8,67.0,29.82,SW,223,0.0,1.0,59,0.00,,,0.00,Wunderground v.1.15,2013-09-21 15:05:00,
2013-09-21 11:15:00,83.0,69.6,29.82,ESE,116,0.0,0.0,64,0.00,,,0.00,Wunderground v.1.15,2013-09-21 15:15:00,
2013-09-21 11:20:00,83.6,68.7,29.82,SE,130,0.0,0.0,61,0.00,,,0.00,Wunderground v.1.15,2013-09-21 15:20:00,
2013-09-21 11:30:00,83.8,67.9,29.82,West,271,0.0,0.0,59,0.00,,,0.00,Wunderground v.1.15,2013-09-21 15:30:00,
2013-09-21 11:40:00,83.8,67.9,29.82,West,271,0.0,0.0,59,0.00,,,0.00,Wunderground v.1.15,2013-09-21 15:40:00,
2013-09-21 11:50:00,83.8,67.4,29.82,WNW,286,1.0,1.0,58,0.00,,,0.00,Wunderground v.1.15,2013-09-21 15:50:00,
2013-09-21 12:00:00,84.1,68.7,29.82,West,279,0.0,0.0,60,0.00,,,0.00,Wunderground v.1.15,2013-09-21 16:00:00,
2013-09-21 12:05:00,84.5,68.6,29.81,West,279,0.0,0.0,59,0.00,,,0.00,Wunderground v.1.15,2013-09-21 16:05:00,
2013-09-21 12:15:00,85.1,68.2,29.81,WNW,284,0.0,0.0,57,0.00,,,0.00,Wunderground v.1.15,2013-09-21 16:15:00,
2013-09-21 12:20:00,85.5,68.5,29.81,NW,305,0.0,0.0,57,0.00,,,0.00,Wunderground v.1.15,2013-09-21 16:20:00,
2013-09-21 12:30:00,85.9,66.8,29.81,NW,304,0.0,0.0,53,0.00,,,0.00,Wunderground v.1.15,2013-09-21 16:30:00,
2013-09-21 12:40:00,86.5,66.8,29.81,ENE,71,0.0,0.0,52,0.00,,,0.00,Wunderground v.1.15,2013-09-21 16:40:00,
2013-09-21 12:50:00,86.7,66.4,29.80,East,94,0.0,1.0,51,0.00,,,0.00,Wunderground v.1.15,2013-09-21 16:50:00,
2013-09-21 13:00:00,87.4,68.2,29.80,North,5,0.0,0.0,53,0.00,,,0.00,Wunderground v.1.15,2013-09-21 17:00:00,
2013-09-21 13:05:00,87.4,67.1,29.79,ESE,107,0.0,0.0,51,0.00,,,0.00,Wunderground v.1.15,2013-09-21 17:05:00,
2013-09-21 13:15:00,87.8,68.0,29.79,South,190,0.0,0.0,52,0.00,,,0.00,Wunderground v.1.15,2013-09-21 17:15:00,
2013-09-21 13:20:00,88.0,67.6,29.79,SSW,200,0.0,0.0,51,0.00,,,0.00,Wunderground v.1.15,2013-09-21 17:20:00,
2013-09-21 13:25:00,88.2,66.6,29.79,SE,138,0.0,0.0,49,0.00,,,0.00,Wunderground v.1.15,2013-09-21 17:25:00,
2013-09-21 13:35:00,88.6,68.2,29.78,ESE,115,0.0,0.0,51,0.00,,,0.00,Wunderground v.1.15,2013-09-21 17:35:00,
2013-09-21 13:40:00,89.3,69.4,29.78,WSW,242,0.0,0.0,52,0.00,,,0.00,Wunderground v.1.15,2013-09-21 17:40:00,
2013-09-21 13:50:00,89.9,68.8,29.78,SE,142,0.0,0.0,50,0.00,,,0.00,Wunderground v.1.15,2013-09-21 17:50:00,
2013-09-21 14:00:00,90.1,67.8,29.78,West,268,0.0,0.0,48,0.00,,,0.00,Wunderground v.1.15,2013-09-21 18:00:00,
2013-09-21 14:05:00,90.1,69.5,29.78,NNE,24,0.0,2.0,51,0.00,,,0.00,Wunderground v.1.15,2013-09-21 18:05:00,
2013-09-21 14:15:00,90.7,67.7,29.78,SSE,164,0.0,0.0,47,0.00,,,0.00,Wunderground v.1.15,2013-09-21 18:15:00,
2013-09-21 14:20:00,91.2,67.5,29.76,SW,229,1.0,1.0,46,0.00,,,0.00,Wunderground v.1.15,2013-09-21 18:20:00,
2013-09-21 14:30:00,91.2,68.2,29.76,South,173,0.0,0.0,47,0.00,,,0.00,Wunderground v.1.15,2013-09-21 18:30:00,
2013-09-21 14:40:00,89.9,67.0,29.76,South,191,0.0,0.0,47,0.00,,,0.00,Wunderground v.1.15,2013-09-21 18:40:00,
2013-09-21 14:50:00,89.9,67.6,29.75,SW,236,0.0,0.0,48,0.00,,,0.00,Wunderground v.1.15,2013-09-21 18:50:00,
2013-09-21 14:55:00,90.7,67.7,29.75,SW,236,0.0,0.0,47,0.00,,,0.00,Wunderground v.1.15,2013-09-21 18:55:00,
2013-09-21 15:00:00,91.4,67.1,29.75,SW,236,0.0,2.0,45,0.00,,,0.00,Wunderground v.1.15,2013-09-21 19:00:00,
2013-09-21 15:05:00,91.8,64.7,29.74,SSW,200,1.0,2.0,41,0.00,,,0.00,Wunderground v.1.15,2013-09-21 19:05:00,
2013-09-21 15:15:00,91.2,66.2,29.74,SSW,200,0.0,1.0,44,0.00,,,0.00,Wunderground v.1.15,2013-09-21 19:15:00,
2013-09-21 15:20:00,91.2,66.2,29.73,SSW,200,0.0,2.0,44,0.00,,,0.00,Wunderground v.1.15,2013-09-21 19:20:00,
2013-09-21 15:30:00,91.4,66.4,29.73,SW,225,1.0,1.0,44,0.00,,,0.00,Wunderground v.1.15,2013-09-21 19:30:00,
2013-09-21 15:40:00,91.4,65.1,29.72,West,273,1.0,1.0,42,0.00,,,0.00,Wunderground v.1.15,2013-09-21 19:40:00,
2013-09-21 15:50:00,91.4,67.1,29.72,SW,236,0.0,1.0,45,0.00,,,0.00,Wunderground v.1.15,2013-09-21 19:50:00,
2013-09-21 16:10:00,89.9,65.7,29.71,WSW,258,0.0,0.0,45,0.00,,,0.00,Wunderground v.1.15,2013-09-21 20:10:00,
2013-09-21 16:20:00,90.3,64.8,29.71,WSW,237,0.0,0.0,43,0.00,,,0.00,Wunderground v.1.15,2013-09-21 20:20:00,
2013-09-21 16:30:00,89.9,65.7,29.71,West,275,0.0,0.0,45,0.00,,,0.00,Wunderground v.1.15,2013-09-21 20:30:00,
2013-09-21 16:40:00,89.0,64.9,29.70,West,261,0.0,0.0,45,0.00,,,0.00,Wunderground v.1.15,2013-09-21 20:40:00,
2013-09-21 16:50:00,88.2,65.4,29.70,West,264,0.0,0.0,47,0.00,,,0.00,Wunderground v.1.15,2013-09-21 20:50:00,
2013-09-21 17:00:00,87.8,65.1,29.70,West,264,0.0,0.0,47,0.00,,,0.00,Wunderground v.1.15,2013-09-21 21:00:00,
2013-09-21 17:05:00,87.8,67.4,29.70,West,264,0.0,0.0,51,0.00,,,0.00,Wunderground v.1.15,2013-09-21 21:05:00,
2013-09-21 17:15:00,88.0,67.0,29.70,WSW,240,0.0,1.0,50,0.00,,,0.00,Wunderground v.1.15,2013-09-21 21:15:00,
2013-09-21 17:25:00,88.0,67.0,29.70,SW,236,0.0,0.0,50,0.00,,,0.00,Wunderground v.1.15,2013-09-21 21:25:00,
2013-09-21 17:35:00,87.4,67.1,29.70,SW,231,0.0,0.0,51,0.00,,,0.00,Wunderground v.1.15,2013-09-21 21:35:00,
2013-09-21 17:45:00,87.2,67.4,29.70,SW,231,0.0,0.0,52,0.00,,,0.00,Wunderground v.1.15,2013-09-21 21:45:00,
2013-09-21 17:55:00,86.7,67.0,29.69,SSW,209,0.0,1.0,52,0.00,,,0.00,Wunderground v.1.15,2013-09-21 21:55:00,
2013-09-21 18:05:00,86.1,68.0,29.69,SSW,210,0.0,0.0,55,0.00,,,0.00,Wunderground v.1.15,2013-09-21 22:05:00,
2013-09-21 18:20:00,85.3,67.8,29.70,SSW,210,0.0,0.0,56,0.00,,,0.00,Wunderground v.1.15,2013-09-21 22:20:00,
2013-09-21 18:30:00,84.7,67.8,29.70,SW,222,0.0,0.0,57,0.00,,,0.00,Wunderground v.1.15,2013-09-21 22:30:00,
2013-09-21 18:35:00,84.5,68.1,29.70,SW,222,0.0,0.0,58,0.00,,,0.00,Wunderground v.1.15,2013-09-21 22:35:00,
2013-09-21 18:40:00,84.3,68.4,29.70,SW,222,0.0,0.0,59,0.00,,,0.00,Wunderground v.1.15,2013-09-21 22:40:00,
2013-09-21 18:50:00,83.8,68.4,29.70,SW,222,0.0,0.0,60,0.00,,,0.00,Wunderground v.1.15,2013-09-21 22:50:00,
2013-09-21 19:00:00,83.4,69.0,29.70,SW,222,0.0,0.0,62,0.00,,,0.00,Wunderground v.1.15,2013-09-21 23:00:00,
2013-09-21 19:05:00,83.2,69.3,29.70,SW,222,0.0,0.0,63,0.00,,,0.00,Wunderground v.1.15,2013-09-21 23:05:00,
2013-09-21 19:15:00,82.6,69.6,29.70,SW,222,0.0,0.0,65,0.00,,,0.00,Wunderground v.1.15,2013-09-21 23:15:00,
2013-09-21 19:45:00,81.2,68.8,29.72,SW,226,0.0,0.0,66,0.00,,,0.00,Wunderground v.1.15,2013-09-21 23:45:00,
2013-09-21 20:00:00,80.7,69.2,29.71,SW,226,0.0,0.0,68,0.00,,,0.00,Wunderground v.1.15,2013-09-22 00:00:00,
2013-09-21 20:05:00,80.5,69.0,29.72,SW,226,0.0,0.0,68,0.00,,,0.00,Wunderground v.1.15,2013-09-22 00:05:00,
2013-09-21 20:15:00,80.1,69.0,29.72,SW,226,0.0,0.0,69,0.00,,,0.00,Wunderground v.1.15,2013-09-22 00:15:00,
2013-09-21 20:25:00,79.8,68.7,29.72,SW,226,0.0,0.0,69,0.00,,,0.00,Wunderground v.1.15,2013-09-22 00:25:00,
2013-09-21 20:35:00,79.6,69.0,29.72,SW,226,0.0,0.0,70,0.00,,,0.00,Wunderground v.1.15,2013-09-22 00:35:00,
2013-09-21 20:40:00,79.4,69.2,29.72,SW,226,0.0,0.0,71,0.00,,,0.00,Wunderground v.1.15,2013-09-22 00:40:00,
2013-09-21 20:45:00,79.2,69.0,29.72,SW,226,0.0,0.0,71,0.00,,,0.00,Wunderground v.1.15,2013-09-22 00:45:00,
2013-09-21 20:55:00,78.8,69.0,29.72,SW,226,0.0,0.0,72,0.00,,,0.00,Wunderground v.1.15,2013-09-22 00:55:00,
2013-09-21 21:05:00,78.5,69.1,29.72,SW,226,0.0,0.0,73,0.00,,,0.00,Wunderground v.1.15,2013-09-22 01:05:00,
2013-09-21 21:15:00,78.3,69.3,29.72,SW,226,0.0,0.0,74,0.00,,,0.00,Wunderground v.1.15,2013-09-22 01:15:00,
2013-09-21 21:25:00,78.1,69.5,29.72,SW,226,0.0,0.0,75,0.00,,,0.00,Wunderground v.1.15,2013-09-22 01:25:00,
2013-09-21 21:30:00,77.9,69.3,29.72,SW,226,0.0,0.0,75,0.00,,,0.00,Wunderground v.1.15,2013-09-22 01:30:00,
2013-09-21 21:50:00,77.4,70.0,29.73,SW,226,0.0,0.0,78,0.00,,,0.00,Wunderground v.1.15,2013-09-22 01:50:00,
2013-09-21 22:00:00,77.0,70.0,29.73,SW,226,0.0,0.0,79,0.00,,,0.00,Wunderground v.1.15,2013-09-22 02:00:00,
2013-09-21 22:05:00,77.0,70.0,29.73,SW,226,0.0,0.0,79,0.00,,,0.00,Wunderground v.1.15,2013-09-22 02:05:00,
2013-09-21 22:15:00,76.8,70.2,29.73,SW,226,0.0,0.0,80,0.00,,,0.00,Wunderground v.1.15,2013-09-22 02:15:00,
2013-09-21 22:20:00,76.7,70.4,29.73,SW,226,0.0,0.0,81,0.00,,,0.00,Wunderground v.1.15,2013-09-22 02:20:00,
2013-09-21 22:25:00,76.5,69.9,29.73,SW,226,0.0,0.0,80,0.00,,,0.00,Wunderground v.1.15,2013-09-22 02:25:00,
2013-09-21 22:35:00,76.3,70.0,29.73,SW,226,0.0,0.0,81,0.00,,,0.00,Wunderground v.1.15,2013-09-22 02:35:00,
2013-09-21 22:40:00,76.1,69.8,29.73,SW,226,0.0,0.0,81,0.00,,,0.00,Wunderground v.1.15,2013-09-22 02:40:00,
2013-09-21 22:50:00,76.0,70.1,29.74,SW,226,0.0,0.0,82,0.00,,,0.00,Wunderground v.1.15,2013-09-22 02:50:00,
2013-09-21 23:00:00,75.8,69.9,29.74,SW,226,0.0,0.0,82,0.00,,,0.00,Wunderground v.1.15,2013-09-22 03:00:00,
2013-09-21 23:05:00,75.8,69.9,29.74,SW,226,0.0,0.0,82,0.00,,,0.00,Wunderground v.1.15,2013-09-22 03:05:00,
2013-09-21 23:15:00,75.8,69.9,29.74,SW,226,0.0,0.0,82,0.00,,,0.00,Wunderground v.1.15,2013-09-22 03:15:00,
2013-09-21 23:20:00,75.6,69.7,29.73,SW,226,0.0,0.0,82,0.00,,,0.00,Wunderground v.1.15,2013-09-22 03:20:00,
2013-09-21 23:25:00,75.6,70.1,29.73,SW,226,0.0,0.0,83,0.00,,,0.00,Wunderground v.1.15,2013-09-22 03:25:00,
2013-09-21 23:35:00,75.6,70.1,29.73,SW,226,0.0,0.0,83,0.00,,,0.00,Wunderground v.1.15,2013-09-22 03:35:00,
2013-09-21 23:40:00,75.6,70.1,29.73,SW,226,0.0,0.0,83,0.00,,,0.00,Wunderground v.1.15,2013-09-22 03:40:00,
2013-09-21 23:50:00,75.6,70.1,29.74,SW,226,0.0,0.0,83,0.00,,,0.00,Wunderground v.1.15,2013-09-22 03:50:00,